Woodward, OK

7:18 PM CST on November 15, 2019 (GMT -0600)
West Woodward

Weather History for KWWR - October, 2019

Change the Weather History Date:

Monday, October 21, 2019

  Actual Average (WUND) Record (WUND)
Temperature  
Mean Temperature 52 °F -  
Max Temperature 64 °F - - (-1)
Min Temperature 39 °F - - (-1)
Degree Days  
Heating Degree Days 14    
Growing Degree Days 2 (Base 50)    
Moisture  
Dew Point 24 °F    
Average Humidity 35    
Maximum Humidity 61    
Minimum Humidity 18    
Precipitation  
Precipitation 0.00 in - - ()
Sea Level Pressure  
Sea Level Pressure 29.94 in    
Wind  
Wind Speed 14 mph (WNW)    
Max Wind Speed 25 mph    
Max Gust Speed 31 mph    
Visibility 10 miles    
Events      
Averages and records for this station are not official NWS values.
T = Trace of Precipitation, MM = Missing Value Source: NWS Daily Summary

Daily Weather History Graph

Daily Weather History Graph

Search for Another Location

Airport or City:

Astronomy

Oct. 21, 2019 Rise Set
Actual Time 7:50 AM CDT 6:54 PM CDT
Civil Twilight 7:24 AM CDT 7:20 PM CDT
Nautical Twilight 6:54 AM CDT 7:50 PM CDT
Astronomical Twilight 6:24 AM CDT 8:20 PM CDT
Moon 12:12 AM CDT (10/21) 3:04 PM CDT (10/21)
Length of Visible Light 11h 56m
Length of Day
11h 03m
Waning Gibbous, 48% of the Moon is Illuminated
Oct 21
Waning Gibbous
Oct 27
New
Nov 4
First Quarter
Nov 12
Full
Nov 19
Last Quarter

Hourly Weather History & Observations

Time (CDT) Temp. Windchill Dew Point Humidity Pressure Visibility Wind Dir Wind Speed Gust Speed Precip Events Conditions
12:00 AM 51.8 °F - 23.0 °F 33% 29.79 in 10.0 mi NW 15.0 mph 21.9 mph N/A   Clear
12:15 AM 53.6 °F - 24.8 °F 33% 29.80 in 10.0 mi NW 15.0 mph 24.2 mph N/A   Clear
12:35 AM 53.6 °F - 24.8 °F 33% 29.80 in 10.0 mi NW 19.6 mph 26.5 mph N/A   Clear
1:00 AM 51.8 °F - 26.6 °F 38% 29.80 in 10.0 mi NW 17.3 mph 24.2 mph N/A   Clear
1:15 AM 51.8 °F - 26.6 °F 38% 29.80 in 10.0 mi NW 17.3 mph 24.2 mph N/A   Clear
1:35 AM 51.8 °F - 26.6 °F 38% 29.80 in 10.0 mi NW 16.1 mph 23.0 mph N/A   Clear
1:55 AM 50.0 °F - 26.6 °F 40% 29.80 in 10.0 mi NW 13.8 mph - N/A   Clear
2:15 AM 50.0 °F - 26.6 °F 40% 29.80 in 10.0 mi NW 9.2 mph 16.1 mph N/A   Clear
2:35 AM 48.2 °F - 26.6 °F 43% 29.81 in 10.0 mi NW 10.4 mph 16.1 mph N/A   Clear
2:55 AM 46.4 °F 42.4 °F 26.6 °F 46% 29.81 in 10.0 mi WNW 8.1 mph - N/A   Clear
3:35 AM 48.2 °F - 26.6 °F 43% 29.84 in 10.0 mi WNW 10.4 mph 16.1 mph N/A   Clear
3:55 AM 48.2 °F - 26.6 °F 43% 29.86 in 10.0 mi WNW 8.1 mph - N/A   Clear
4:15 AM 46.4 °F 42.9 °F 26.6 °F 46% 29.86 in 10.0 mi WNW 6.9 mph - N/A   Clear
4:35 AM 44.6 °F 40.7 °F 26.6 °F 49% 29.86 in 10.0 mi WNW 6.9 mph - N/A   Clear
4:55 AM 42.8 °F 38.0 °F 26.6 °F 53% 29.86 in 10.0 mi West 8.1 mph - N/A   Clear
5:15 AM 42.8 °F 37.5 °F 26.6 °F 53% 29.85 in 10.0 mi West 9.2 mph - N/A   Clear
5:55 AM 41.0 °F 34.7 °F 26.6 °F 57% 29.85 in 10.0 mi West 10.4 mph - N/A   Clear
6:15 AM 41.0 °F 35.2 °F 26.6 °F 57% 29.86 in 10.0 mi West 9.2 mph - N/A   Clear
6:55 AM 39.2 °F 33.0 °F 26.6 °F 61% 29.86 in 10.0 mi West 9.2 mph - N/A   Clear
7:15 AM 41.0 °F 34.3 °F 26.6 °F 57% 29.87 in 10.0 mi West 11.5 mph - N/A   Clear
7:35 AM 41.0 °F 34.7 °F 26.6 °F 57% 29.88 in 10.0 mi West 10.4 mph - N/A   Clear
7:55 AM 41.0 °F 33.9 °F 26.6 °F 57% 29.88 in 10.0 mi West 12.7 mph 16.1 mph N/A   Clear
8:15 AM 42.8 °F 35.8 °F 26.6 °F 53% 29.89 in 10.0 mi West 13.8 mph 19.6 mph N/A   Clear
8:35 AM 42.8 °F 35.8 °F 26.6 °F 53% 29.89 in 10.0 mi West 13.8 mph 20.7 mph N/A   Clear
8:55 AM 44.6 °F 38.1 °F 26.6 °F 49% 29.91 in 10.0 mi West 13.8 mph 21.9 mph N/A   Clear
9:15 AM 46.4 °F 40.4 °F 28.4 °F 50% 29.92 in 10.0 mi West 13.8 mph 21.9 mph N/A   Clear
9:55 AM 51.8 °F - 28.4 °F 41% 29.93 in 10.0 mi WNW 15.0 mph 23.0 mph N/A   Clear
10:15 AM 51.8 °F - 26.6 °F 38% 29.94 in 10.0 mi WNW 16.1 mph 24.2 mph N/A   Clear
10:35 AM 53.6 °F - 26.6 °F 35% 29.94 in 10.0 mi WNW 18.4 mph 24.2 mph N/A   Clear
10:55 AM 55.4 °F - 23.0 °F 29% 29.94 in 10.0 mi NW 23.0 mph 31.1 mph N/A   Clear
11:15 AM 55.4 °F - 23.0 °F 29% 29.93 in 10.0 mi NW 21.9 mph 28.8 mph N/A   Clear
11:35 AM 57.2 °F - 23.0 °F 27% 29.94 in 10.0 mi NW 20.7 mph 31.1 mph N/A   Clear
11:55 AM 59.0 °F - 23.0 °F 25% 29.95 in 10.0 mi WNW 20.7 mph 26.5 mph N/A   Clear
12:15 PM 59.0 °F - 23.0 °F 25% 29.94 in 10.0 mi NW 16.1 mph 31.1 mph N/A   Clear
12:35 PM 60.8 °F - 23.0 °F 23% 29.95 in 10.0 mi WNW 16.1 mph 27.6 mph N/A   Clear
12:55 PM 60.8 °F - 23.0 °F 23% 29.95 in 10.0 mi WNW 17.3 mph 25.3 mph N/A   Clear
1:15 PM 60.8 °F - 23.0 °F 23% 29.94 in 10.0 mi NW 23.0 mph 29.9 mph N/A   Clear
1:35 PM 62.6 °F - 24.8 °F 24% 29.93 in 10.0 mi WNW 16.1 mph 31.1 mph N/A   Clear
1:55 PM 62.6 °F - 23.0 °F 22% 29.93 in 10.0 mi West 20.7 mph 26.5 mph N/A   Clear
2:15 PM 62.6 °F - 23.0 °F 22% 29.93 in 10.0 mi NW 20.7 mph 28.8 mph N/A   Clear
2:35 PM 62.6 °F - 23.0 °F 22% 29.93 in 10.0 mi WNW 17.3 mph 24.2 mph N/A   Clear
2:55 PM 64.4 °F - 23.0 °F 21% 29.93 in 10.0 mi WNW 18.4 mph 28.8 mph N/A   Clear
3:15 PM 64.4 °F - 23.0 °F 21% 29.93 in 10.0 mi West 25.3 mph 31.1 mph N/A   Scattered Clouds
3:35 PM 64.4 °F - 21.2 °F 19% 29.92 in 10.0 mi WNW 16.1 mph 28.8 mph N/A   Scattered Clouds
3:55 PM 64.4 °F - 21.2 °F 19% 29.93 in 10.0 mi West 16.1 mph 27.6 mph N/A   Scattered Clouds
4:15 PM 64.4 °F - 21.2 °F 19% 29.93 in 10.0 mi WNW 20.7 mph 31.1 mph N/A   Mostly Cloudy
4:35 PM 64.4 °F - 19.4 °F 18% 29.94 in 10.0 mi WNW 20.7 mph 31.1 mph N/A   Scattered Clouds
4:55 PM 64.4 °F - 19.4 °F 18% 29.95 in 10.0 mi WNW 19.6 mph 27.6 mph N/A   Scattered Clouds
5:15 PM 62.6 °F - 19.4 °F 19% 29.95 in 10.0 mi NW 21.9 mph 31.1 mph N/A   Scattered Clouds
5:35 PM 62.6 °F - 19.4 °F 19% 29.97 in 10.0 mi WNW 20.7 mph 25.3 mph N/A   Scattered Clouds
5:55 PM 62.6 °F - 19.4 °F 19% 29.97 in 10.0 mi WNW 17.3 mph 29.9 mph N/A   Scattered Clouds
6:15 PM 60.8 °F - 19.4 °F 20% 29.98 in 10.0 mi WNW 15.0 mph 24.2 mph N/A   Scattered Clouds
6:35 PM 59.0 °F - 21.2 °F 23% 29.99 in 10.0 mi NW 12.7 mph 19.6 mph N/A   Scattered Clouds
6:55 PM 57.2 °F - 21.2 °F 25% 30.00 in 10.0 mi NW 10.4 mph 16.1 mph N/A   Clear
7:15 PM 55.4 °F - 19.4 °F 25% 30.01 in 10.0 mi NW 6.9 mph - N/A   Clear
7:35 PM 51.8 °F - 19.4 °F 28% 30.02 in 10.0 mi NW 6.9 mph - N/A   Clear
7:55 PM 50.0 °F - 21.2 °F 32% 30.03 in 10.0 mi NW 5.8 mph - N/A   Clear
8:15 PM 48.2 °F - 21.2 °F 34% 30.05 in 10.0 mi WNW 5.8 mph - N/A   Clear
8:35 PM 50.0 °F - 21.2 °F 32% 30.05 in 10.0 mi WNW 4.6 mph - N/A   Clear
8:55 PM 48.2 °F - 21.2 °F 34% 30.06 in 10.0 mi North 10.4 mph - N/A   Clear
9:15 PM 50.0 °F - 21.2 °F 32% 30.07 in 10.0 mi NNW 9.2 mph - N/A   Clear
9:35 PM 48.2 °F - 23.0 °F 37% 30.08 in 10.0 mi NNW 11.5 mph - N/A   Clear
9:55 PM 50.0 °F - 21.2 °F 32% 30.09 in 10.0 mi NNW 9.2 mph - N/A   Clear
10:15 PM 48.2 °F - 21.2 °F 34% 30.11 in 10.0 mi NNW 6.9 mph - N/A   Clear
10:35 PM 44.6 °F 40.7 °F 21.2 °F 39% 30.11 in 10.0 mi NNW 6.9 mph - N/A   Clear
10:55 PM 44.6 °F 42.2 °F 23.0 °F 43% 30.12 in 10.0 mi NNW 4.6 mph - N/A   Clear
11:15 PM 44.6 °F 42.2 °F 23.0 °F 43% 30.13 in 10.0 mi NW 4.6 mph - N/A   Clear
11:35 PM 42.8 °F 41.1 °F 23.0 °F 46% 30.14 in 10.0 mi WNW 3.5 mph - N/A   Clear
11:55 PM 42.8 °F 38.6 °F 21.2 °F 42% 30.15 in 10.0 mi West 6.9 mph - N/A   Clear